This demonstration page uses our WeatherBlox Daily Observations layout. Learn more.

38.88101, -77.10428

Hourly Observations for August 28, 2018

Temp ( °F °C ) Dew Point ( °F °C ) Humidity (%) Winds ( mph kmh ) Pressure ( in mb ) Visibility ( mi km ) Precip ( " mm )
12:52 am 00:52 Mostly Cloudy 80 26.7 76 24.4 87 87 S 6 9 30.08 1019 7 11.26538 0 0
1:52 am 01:52 Mostly Cloudy 80 26.7 76 24.4 87 87 S 5 7 30.08 1019 7 11.26538 0 0
2:52 am 02:52 Mostly Cloudy with Mist and Fog 79 26.1 76 24.4 90 90 S 7 11 30.07 1018 6 9.65604 0 0
3:52 am 03:52 Mostly Cloudy with Mist and Fog 79 26.1 75 23.9 88 88 S 5 7 30.07 1018 6 9.65604 0 0
4:52 am 04:52 Mostly Cloudy with Mist and Fog 78 25.6 75 23.9 90 90 S 6 9 30.08 1019 5 8.0467 0 0
5:52 am 05:52 Partly Cloudy with Mist and Fog 78 25.6 75 23.9 90 90 S 3 6 30.09 1019 5 8.0467 0 0
6:52 am 06:52 Partly Cloudy with Mist and Fog 78 25.6 75 23.9 90 90 SSW 3 6 30.1 1019 5 8.0467 0 0
7:52 am 07:52 Partly Cloudy with Mist and Fog 79 26.1 76 24.4 90 90 S 5 7 30.11 1020 4 6.43736 0 0
8:52 am 08:52 Partly Cloudy with Mist and Fog 80 26.7 76 24.4 87 87 S 8 13 30.12 1020 5 8.0467 0 0
9:52 am 09:52 Sunny 82 27.8 76 24.4 82 82 S 7 11 30.13 1020 8 12.87472 0 0
10:52 am 10:52 Sunny 87 30.6 75 23.9 67 67 S 7 11 30.13 1020 9 14.48406 0 0
11:52 am 11:52 Mostly Sunny 89 31.7 74 23.3 61 61 S 7 11 30.12 1020 10 16.0934 0 0
12:52 pm 12:52 Mostly Sunny 91 32.8 75 23.9 59 59 S 8 13 30.1 1019 10 16.0934 0 0
1:52 pm 13:52 Partly Cloudy 92 33.3 75 23.9 58 58 S 8 13 30.1 1019 10 16.0934 0 0
2:52 pm 14:52 Partly Cloudy 92 33.3 73 22.8 54 54 S 7 11 30.08 1019 10 16.0934 0 0
3:52 pm 15:52 Partly Cloudy 93 33.9 73 22.8 52 52 SSW 12 19 30.07 1018 10 16.0934 0 0
4:52 pm 16:52 Mostly Sunny 92 33.3 72 22.2 52 52 S 10 17 30.05 1018 10 16.0934 0 0
5:52 pm 17:52 Partly Cloudy 91 32.8 73 22.8 56 56 S 9 15 30.05 1018 10 16.0934 0 0
6:52 pm 18:52 Partly Cloudy 88 31.1 75 23.9 66 66 S 8 13 30.05 1018 10 16.0934 0 0
7:52 pm 19:52 Partly Cloudy 86 30 75 23.9 70 70 S 8 13 30.05 1018 10 16.0934 0 0
8:52 pm 20:52 Mostly Clear 85 29.4 76 24.4 75 75 S 8 13 30.05 1018 10 16.0934 0 0
9:52 pm 21:52 Mostly Clear 84 28.9 77 25 80 80 S 6 9 30.06 1018 10 16.0934 0 0
10:52 pm 22:52 Mostly Cloudy 83 28.3 77 25 82 82 S 9 15 30.07 1018 10 16.0934 0 0
11:52 pm 23:52 Mostly Cloudy 82 27.8 77 25 85 85 S 7 11 30.06 1018 10 16.0934 0 0

Powered by AerisWeather